Change the Weather History Date:

Friday, October 26, 2012

  Actual Average Record
Temperature  
Mean Temperature 54 °F -  
Max Temperature 75 °F 68 °F 75 °F (2012)
Min Temperature 33 °F 40 °F 24 °F (1999)
Degree Days  
Heating Degree Days 11    
Growing Degree Days 4 (Base 50)    
Moisture  
Dew Point 33 °F    
Average Humidity 53    
Maximum Humidity 93    
Minimum Humidity 13    
Precipitation  
Precipitation 0.00 in - - ()
Sea Level Pressure  
Sea Level Pressure 30.13 in    
Wind  
Wind Speed 3 mph ()    
Max Wind Speed 12 mph    
Max Gust Speed -    
Visibility 7.7 miles    
Events      
Averages and records for this station are not official NWS values.
T = Trace of Precipitation, MM = Missing Value Source: Averaged Metar Reports

Daily Weather History Graph

Daily Weather History Graph

Search for Another Location

Airport or City:

Trip Planner

Search our weather history database for the weather conditions in past years. The results will help you decide how hot, cold, wet, or windy it might be!

Date:

Astronomy

Oct. 26, 2012 Rise Set
Actual Time 7:36 AM CDT 7:07 PM CDT
Civil Twilight 7:14 AM CDT 7:29 PM CDT
Nautical Twilight 6:48 AM CDT 7:55 PM CDT
Astronomical Twilight 6:22 AM CDT 8:21 PM CDT
Moon 5:07 PM CDT (10/26) 4:54 AM CDT (10/26)
Length of Visible Light 12h 15m
Length of Day
11h 30m
Waxing Gibbous, 91% of the Moon is Illuminated
Oct 26
Waxing Gibbous
Oct 29
Full
Nov 6
Last Quarter
Nov 13
New
Nov 20
First Quarter

Hourly Weather History & Observations

Time (CDT) Temp. Windchill Dew Point Humidity Pressure Visibility Wind Dir Wind Speed Gust Speed Precip Events Conditions
12:45 AM 44.6 °F - 39.2 °F 81% 29.75 in 7.0 mi Calm Calm - N/A   Clear
1:45 AM 44.6 °F 42.2 °F 42.8 °F 93% 30.31 in 6.0 mi NNW 4.6 mph - N/A   Clear
2:45 AM 42.8 °F - 39.2 °F 87% 30.30 in 5.0 mi Calm Calm - N/A   Clear
3:45 AM 41.0 °F - 37.4 °F 87% 29.73 in 5.0 mi Calm Calm - N/A   Clear
4:45 AM 39.2 °F - 32.0 °F 75% 30.28 in 4.0 mi Calm Calm - N/A   Partly Cloudy
5:45 AM 37.4 °F - 32.0 °F 81% 30.29 in 4.0 mi Calm Calm - N/A   Scattered Clouds
6:45 AM 35.6 °F 32.8 °F 30.2 °F 81% 29.85 in 4.0 mi NE 3.5 mph - N/A   Partly Cloudy
7:45 AM 33.8 °F - 30.2 °F 87% 30.32 in 4.0 mi Calm Calm - N/A   Clear
8:45 AM 39.2 °F - 33.8 °F 81% 30.33 in 4.0 mi Calm Calm - N/A   Clear
9:45 AM 48.2 °F - 37.4 °F 66% 29.91 in 6.0 mi Calm Calm - N/A   Clear
10:45 AM 57.2 °F - 33.8 °F 41% 30.36 in 6.0 mi Calm Calm - N/A   Clear
11:45 AM 64.4 °F - 28.4 °F 26% 30.35 in 6.0 mi WNW 3.5 mph - N/A   Clear
12:45 PM 68.0 °F - 26.6 °F 21% 29.82 in 6.0 mi NW 5.8 mph - N/A   Clear
1:45 PM 71.6 °F - 28.4 °F 20% 30.28 in 10.0 mi SW 11.5 mph - N/A   Clear
2:45 PM 71.6 °F - 26.6 °F 19% 30.25 in 12.0 mi West 3.5 mph - N/A   Clear
3:45 PM 73.4 °F - 19.4 °F 13% 29.67 in 12.0 mi East 9.2 mph - N/A   Clear
4:45 PM 75.2 °F - 48.2 °F 38% 30.21 in 12.0 mi NE 6.9 mph - N/A   Clear
5:45 PM 71.6 °F - 19.4 °F 14% 30.21 in 12.0 mi NNE 11.5 mph - N/A   Clear
6:45 PM 68.0 °F - 21.2 °F 17% 29.78 in 10.0 mi NE 9.2 mph - N/A   Clear
7:50 PM 57.2 °F - 32.0 °F 38% 30.27 in 10.0 mi ESE 10.4 mph - N/A   Clear
8:45 PM 59.0 °F - 33.8 °F 39% 30.30 in 10.0 mi East 9.2 mph - N/A   Clear
9:45 PM 55.4 °F - 37.4 °F 51% 29.90 in 10.0 mi East 8.1 mph - N/A   Clear
10:45 PM 51.8 °F - 35.6 °F 54% 30.34 in 10.0 mi ENE 4.6 mph - N/A   Clear
11:42 PM 48.2 °F - 37.4 °F 66% 30.36 in 10.0 mi East 3.5 mph - N/A   Clear